CW0465 Weather Reports


time (UTC)temp
F
wind
direction
speed
knots
gust
knots
rain 1hr
in
rain 24hr
in
rain mn
in
humidity
%
barometer
mb
20260510214114 59 246 0.0 0.0 0.00 0.18 0.18 91 1012.0
20260510213603 59 232 0.0 1.7 0.00 0.24 0.20 91 1013.4
20260510212703 59 204 0.0 1.7 0.02 0.26 0.20 91 1013.4
20260510212609 60 192 0.9 2.6 0.00 0.18 0.18 91 1012.1
20260510211803 60 0 0.0 0.0 0.05 0.29 0.20 91 1013.4
20260510211109 59 8 0.0 0.0 0.00 0.18 0.18 90 1011.9
20260510210903 59 188 0.0 1.7 0.09 0.33 0.20 91 1013.1
20260510210003 58 189 0.0 2.6 0.10 0.34 0.20 90 1013.1
20260510205606 60 194 0.0 0.0 0.00 0.18 0.18 90 1011.6
20260510205404 58 201 0.0 2.6 0.10 0.35 0.20 90 1013.1
20260510204503 58 12 0.0 1.7 0.10 0.36 0.20 91 1013.1
20260510204101 58 311 0.0 1.7 0.00 0.18 0.18 91 1011.5
20260510203603 56 332 0.0 1.7 0.13 0.37 0.20 91 1013.1
20260510202703 57 213 0.9 3.5 0.11 0.36 0.18 90 1013.1
20260510202600 57 23 0.0 1.7 0.17 0.17 0.17 90 1011.7
20260510201803 58 11 0.9 4.3 0.09 0.33 0.15 89 1013.1
20260510201056 58 292 2.6 2.6 0.09 0.10 0.10 89 1011.7
20260510200903 58 5 0.9 1.7 0.05 0.30 0.11 88 1013.1
20260510200003 60 24 0.0 1.7 0.07 0.30 0.10 87 1012.7
20260510195554 59 18 0.9 0.9 0.00 0.09 0.09 86 1011.5
20260510195403 59 50 0.0 1.7 0.10 0.30 0.10 86 1012.7
20260510194503 57 202 0.9 2.6 0.10 0.30 0.10 87 1013.1
20260510194053 59 187 0.9 1.7 0.00 0.06 0.06 86 1012.2
20260510193603 59 333 0.9 3.5 0.07 0.28 0.07 86 1013.1
20260510192918 60 322 0.0 1.7 0.07 0.29 0.07 90 1013.1
20260510192549 61 286 0.0 0.9 0.02 0.06 0.06 89 1011.6
20260510191803 60 305 0.9 3.5 0.06 0.32 0.06 87 1013.1
20260510191044 61 240 0.0 3.5 0.12 0.05 0.05 86 1011.8
20260510190903 61 215 1.7 5.2 0.06 0.36 0.06 86 1013.1
20260510190003 63 201 0.9 4.3 0.03 0.34 0.03 80 1013.1
20260510185541 66 203 0.0 2.6 0.00 0.00 0.00 70 1011.6
20260510185403 66 194 1.7 5.2 0.00 0.31 0.00 68 1012.7
20260510184503 67 202 1.7 5.2 0.00 0.32 0.00 65 1012.7
20260510184037 68 146 2.6 4.3 0.00 0.00 0.00 64 1011.4
20260510183603 68 270 1.7 9.6 0.00 0.32 0.00 64 1012.7
20260510182703 68 223 2.6 10.4 0.00 0.32 0.00 62 1013.1
20260510182538 69 214 2.6 7.0 0.00 0.00 0.00 61 1011.5
20260510181803 68 222 3.5 11.3 0.00 0.32 0.00 60 1012.7
20260510181032 69 162 2.6 7.8 0.00 0.00 0.00 61 1011.3
20260510180903 68 217 3.5 8.7 0.00 0.32 0.00 62 1013.1
20260510180004 68 234 2.6 10.4 0.00 0.32 0.00 64 1013.1
20260510175527 69 206 2.6 4.3 0.00 0.00 0.00 62 1011.4
20260510175403 68 229 1.7 10.4 0.00 0.32 0.00 63 1012.4
20260510174503 67 211 2.6 10.4 0.00 0.32 0.00 64 1012.7
20260510174024 68 229 2.6 7.8 0.00 0.00 0.00 64 1011.4
20260510173603 66 228 3.5 13.9 0.00 0.32 0.00 67 1013.1
20260510172703 66 218 2.6 10.4 0.00 0.32 0.00 67 1013.1
20260510172524 67 237 1.7 5.2 0.00 0.00 0.00 67 1011.6
20260510171803 66 224 1.7 6.1 0.00 0.32 0.00 70 1012.7
20260510171020 67 174 3.5 4.3 0.00 0.00 0.00 68 1011.3
20260510170903 65 276 1.7 5.2 0.00 0.32 0.00 68 1012.7
20260510170003 65 233 1.7 5.2 0.00 0.32 0.00 71 1012.4
20260510165617 66 235 1.7 5.2 0.00 0.32 0.00 70 1012.4
20260510165520 67 250 4.3 5.2 0.00 0.00 0.00 70 1011.2
20260510164503 68 237 0.9 4.3 0.00 0.32 0.00 69 1012.7
20260510164016 67 209 3.5 3.5 0.00 0.00 0.00 68 1011.5
20260510163603 65 204 1.7 4.3 0.00 0.32 0.00 70 1013.1
20260510162703 65 194 1.7 6.1 0.00 0.32 0.00 70 1013.1
20260510162515 66 151 2.6 6.1 0.00 0.00 0.00 70 1011.4
20260510161803 65 182 1.7 4.3 0.00 0.32 0.00 69 1013.1
20260510161011 67 120 0.0 2.6 0.00 0.00 0.00 70 1011.8
20260510160903 65 211 2.6 6.1 0.00 0.32 0.00 70 1013.1
20260510160217 64 213 2.6 6.1 0.00 0.33 0.00 72 1013.1
20260510155510 67 208 4.3 4.3 0.00 0.00 0.00 70 1011.7
20260510155403 65 166 1.7 5.2 0.00 0.33 0.00 72 1013.1
20260510154503 65 201 0.9 4.3 0.00 0.33 0.00 73 1013.1
20260510154008 66 151 0.0 2.6 0.00 0.00 0.00 71 1011.6
20260510153603 65 144 0.9 4.3 0.00 0.34 0.00 74 1013.1
20260510152703 65 181 0.9 4.3 0.00 0.34 0.00 74 1013.4
20260510152504 66 24 0.0 1.7 0.00 0.00 0.00 73 1011.9
20260510151803 63 211 1.7 6.1 0.00 0.34 0.00 74 1013.4
20260510151000 64 259 0.0 2.6 0.00 0.00 0.00 77 1011.8
20260510150903 62 199 1.7 5.2 0.00 0.34 0.00 76 1013.4
20260510150003 62 211 1.7 7.8 0.00 0.34 0.00 76 1013.1
20260510145454 63 270 0.0 3.5 0.00 0.00 0.00 78 1011.9
20260510145403 62 224 2.6 7.8 0.00 0.34 0.00 78 1013.4
20260510144503 62 190 1.7 4.3 0.00 0.34 0.00 79 1013.4
20260510143954 62 243 1.7 2.6 0.00 0.00 0.00 79 1011.9
20260510143817 59 202 1.7 7.8 0.00 0.34 0.00 78 1013.1
20260510142703 59 211 0.9 5.2 0.00 0.34 0.00 79 1013.1
20260510142450 60 270 1.7 6.1 0.00 0.00 0.00 78 1011.7
20260510141803 60 122 0.9 3.5 0.00 0.34 0.00 83 1013.1
20260510140946 59 176 3.5 4.3 0.00 0.00 0.00 85 1011.9
20260510140903 58 99 0.9 4.3 0.00 0.34 0.00 85 1013.1
20260510140003 56 97 0.9 5.2 0.00 0.34 0.00 93 1013.1
20260510135443 56 82 0.9 2.6 0.00 0.00 0.00 95 1011.8
20260510135403 55 89 0.9 2.6 0.00 0.34 0.00 95 1013.4
20260510134503 54 133 0.9 3.5 0.00 0.34 0.00 96 1013.4
20260510133940 55 90 0.0 3.5 0.00 0.00 0.00 96 1011.8
20260510133603 52 149 0.9 1.7 0.00 0.34 0.00 96 1013.1
20260510132703 51 130 0.9 1.7 0.00 0.34 0.00 96 1013.1
20260510132435 53 255 0.9 1.7 0.00 0.00 0.00 96 1011.7
20260510131803 51 69 0.9 1.7 0.00 0.34 0.00 96 1013.1
20260510130932 53 143 1.7 1.7 0.00 0.00 0.00 96 1011.7
20260510130903 51 105 0.0 2.6 0.00 0.34 0.00 96 1013.1
20260510130003 51 157 0.0 2.6 0.00 0.34 0.00 96 1013.1
20260510125427 52 195 0.0 2.6 0.00 0.00 0.00 96 1011.8
20260510125403 51 97 0.0 1.7 0.00 0.34 0.00 96 1013.1
20260510124717 52 36 0.0 1.7 0.00 0.34 0.00 96 1013.1
20260510123924 52 90 0.0 0.0 0.00 0.00 0.00 96 1011.6
20260510123603 52 59 0.0 1.7 0.00 0.34 0.00 97 1013.1
20260510122703 51 60 0.0 1.7 0.00 0.34 0.00 96 1012.7
20260510122422 52 29 0.0 0.9 0.00 0.00 0.00 96 1011.5
20260510121803 51 42 0.9 1.7 0.00 0.34 0.00 96 1012.7
20260510120919 52 33 1.7 1.7 0.00 0.00 0.00 96 1011.3
20260510120903 51 48 0.0 1.7 0.00 0.34 0.00 96 1012.7
20260510120003 51 39 0.0 1.7 0.00 0.34 0.00 97 1012.7
20260510115414 51 23 0.0 0.9 0.00 0.00 0.00 96 1011.3
20260510115403 51 56 0.0 1.7 0.00 0.34 0.00 96 1012.7
20260510114503 51 49 0.9 1.7 0.00 0.34 0.00 97 1012.4
20260510113913 51 18 0.9 0.9 0.00 0.00 0.00 97 1011.2
20260510113603 51 32 0.0 1.7 0.00 0.34 0.00 96 1012.4
20260510112703 50 245 0.0 0.9 0.00 0.34 0.00 97 1012.4
20260510112410 51 243 0.0 0.0 0.00 0.00 0.00 96 1010.9
20260510111803 50 162 0.0 1.7 0.00 0.34 0.00 96 1012.0
20260510110909 50 23 0.0 1.7 0.00 0.00 0.00 96 1010.8
20260510110903 50 36 0.0 1.7 0.00 0.34 0.00 96 1012.0
20260510110003 50 62 0.0 0.9 0.00 0.34 0.00 96 1012.0
20260510105408 50 57 0.0 0.0 0.00 0.00 0.00 97 1010.7
20260510105403 50 135 0.0 0.9 0.00 0.34 0.00 97 1012.0
20260510104503 50 128 0.0 1.7 0.00 0.34 0.00 97 1012.4
20260510103903 50 173 0.0 0.9 0.00 0.00 0.00 96 1010.7
20260510103603 50 55 0.0 1.7 0.00 0.34 0.00 96 1012.0
20260510102917 50 73 0.0 1.7 0.00 0.34 0.00 96 1012.0
20260510102404 50 71 0.9 1.7 0.00 0.00 0.00 96 1010.6
20260510101803 50 133 0.0 1.7 0.00 0.34 0.00 97 1012.0
20260510100903 50 176 0.0 1.7 0.00 0.34 0.00 97 1012.0
20260510100003 50 89 0.0 1.7 0.00 0.34 0.00 97 1012.0
20260510095403 50 156 0.0 1.7 0.00 0.34 0.00 96 1011.7
20260510095356 50 145 0.0 1.7 0.00 0.00 0.00 96 1010.4
20260510094718 50 79 0.9 2.6 0.00 0.34 0.00 96 1011.7
20260510093853 50 90 0.9 1.7 0.00 0.00 0.00 96 1010.2
20260510093603 50 55 0.9 2.6 0.00 0.34 0.00 96 1011.7
20260510092703 50 90 0.0 1.7 0.00 0.34 0.00 96 1011.7
20260510092348 50 90 0.0 1.7 0.00 0.00 0.00 96 1010.3
20260510091803 50 274 0.0 1.7 0.00 0.35 0.00 96 1011.7
20260510090903 50 217 0.0 3.5 0.00 0.35 0.00 96 1011.7
20260510090843 50 281 0.0 1.7 0.00 0.00 0.00 96 1010.3
20260510090003 50 215 0.0 1.7 0.00 0.35 0.00 96 1011.7
20260510085403 50 205 0.0 1.7 0.00 0.35 0.00 96 1012.0
20260510085342 50 234 0.9 2.6 0.00 0.00 0.00 96 1010.7
20260510084717 50 0 0.0 0.0 0.00 0.35 0.00 96 1012.0
20260510083837 50 114 0.0 0.0 0.00 0.00 0.00 96 1010.4
20260510083817 50 111 0.0 0.9 0.00 0.35 0.00 96 1011.7
20260510082703 50 65 0.0 1.7 0.00 0.35 0.00 96 1012.0
20260510082333 50 63 0.9 1.7 0.00 0.00 0.00 96 1010.8
20260510082017 50 0 0.0 0.0 0.00 0.35 0.00 96 1012.0
20260510080904 50 0 0.0 0.0 0.00 0.35 0.00 96 1012.0
20260510080830 50 15 0.0 0.0 0.00 0.00 0.00 96 1010.8
20260510080003 50 8 0.0 0.9 0.00 0.35 0.00 96 1012.0
20260510075403 50 15 0.0 1.7 0.00 0.35 0.00 96 1012.0
20260510075325 50 23 0.0 0.0 0.00 0.00 0.00 96 1010.7
20260510074503 50 72 0.0 0.9 0.00 0.36 0.00 96 1012.0
20260510073821 50 0 0.0 0.9 0.00 0.00 0.00 96 1010.6
20260510073818 50 147 0.0 0.9 0.00 0.36 0.00 96 1012.0
20260510072703 50 354 0.0 0.9 0.00 0.36 0.00 96 1012.0
20260510072316 50 349 0.0 0.9 0.00 0.00 0.00 96 1010.5
20260510071803 50 0 0.0 0.0 0.00 0.36 0.00 96 1011.7
20260510071118 50 0 0.0 0.0 0.00 0.36 0.00 96 1011.7
20260510070814 50 23 0.0 0.0 0.00 0.00 0.00 96 1010.2
20260510070003 50 31 0.0 1.7 0.00 0.36 0.00 96 1011.7
20260510065403 50 47 0.0 1.7 0.00 0.36 0.00 96 1011.7
20260510065313 50 29 0.0 1.7 0.00 0.00 0.00 96 1010.3
20260510064503 50 0 0.0 0.0 0.00 0.36 0.00 96 1011.7
20260510063818 50 23 0.0 0.9 0.00 0.36 0.00 96 1011.7
20260510063808 50 23 0.0 0.0 0.00 0.00 0.00 96 1010.5
20260510062703 50 0 0.0 0.0 0.00 0.36 0.00 96 1012.0
20260510062306 50 15 0.0 0.0 0.00 0.00 0.00 96 1010.4
20260510061803 50 0 0.0 0.0 0.00 0.36 0.00 96 1012.0
20260510060903 50 360 0.0 0.9 0.00 0.36 0.00 96 1011.7
20260510060803 50 0 0.0 0.0 0.00 0.00 0.00 96 1010.2
20260510060217 50 77 0.0 0.9 0.00 0.36 0.00 96 1011.7
20260510055403 50 227 0.0 1.7 0.00 0.36 0.00 96 1011.3
20260510055301 50 75 0.0 1.7 0.00 0.00 0.00 96 1010.3
20260510054718 50 254 0.0 0.9 0.00 0.36 0.00 96 1011.7
20260510053757 50 286 0.0 1.7 0.00 0.00 0.00 96 1010.2
20260510053603 50 175 0.0 3.5 0.00 0.36 0.00 96 1011.3
20260510052703 50 173 0.0 1.7 0.00 0.36 0.00 96 1011.7
20260510052257 50 188 0.0 0.0 0.00 0.00 0.00 96 1010.2
20260510051803 50 141 0.0 1.7 0.00 0.36 0.00 96 1011.7
20260510051117 50 200 0.0 0.9 0.00 0.36 0.00 96 1011.7
20260510050753 50 191 0.0 0.0 0.00 0.00 0.00 96 1010.4
20260510050003 50 198 0.0 1.7 0.00 0.36 0.00 96 1011.3
20260510045403 50 235 0.0 1.7 0.00 0.36 0.00 96 1011.3
20260510045249 50 188 0.0 0.0 0.00 0.00 0.00 96 1010.2
20260510044718 50 235 0.0 1.7 0.00 0.36 0.00 96 1011.3
20260510043745 50 172 0.0 0.0 0.00 0.00 0.00 96 1010.3
20260510043603 50 219 0.9 2.6 0.00 0.36 0.00 96 1011.7
20260510042703 50 204 0.0 2.6 0.00 0.36 0.00 96 1012.0
20260510042241 51 187 0.0 2.6 0.00 0.00 0.00 96 1010.2
20260510041803 51 201 0.0 1.7 0.00 0.36 0.00 96 1011.7
20260510040903 51 215 0.0 1.7 0.00 0.36 0.00 96 1011.3
20260510040738 51 209 0.0 0.9 0.00 0.00 0.00 96 1010.0
20260510040009 51 216 0.0 2.6 0.00 0.36 0.00 96 1011.7
20260510035403 51 212 0.0 1.7 0.00 0.36 0.36 96 1011.3
20260510035238 51 188 0.0 0.0 0.00 0.37 0.37 96 1010.0
20260510034503 51 60 0.0 1.7 0.00 0.36 0.36 96 1011.3
20260510033734 51 66 1.7 1.7 0.00 0.37 0.37 96 1010.0
20260510033603 51 73 0.0 0.9 0.00 0.36 0.36 96 1011.3
20260510032704 51 33 0.0 0.9 0.00 0.36 0.36 96 1011.7
20260510032230 51 8 0.0 0.9 0.00 0.37 0.37 96 1010.0
20260510031803 51 101 0.0 1.7 0.00 0.36 0.36 96 1011.3
20260510031117 51 54 0.0 1.7 0.00 0.36 0.36 96 1011.3
20260510030727 51 23 0.0 0.0 0.00 0.37 0.37 96 1010.1
20260510030003 51 24 0.0 1.7 0.00 0.36 0.36 96 1012.0
20260510025403 51 56 0.0 1.7 0.00 0.36 0.36 96 1011.7
20260510025225 51 81 0.0 1.7 0.00 0.37 0.37 96 1010.1
20260510024503 51 55 0.0 1.7 0.00 0.36 0.36 96 1011.7
20260510023816 51 48 0.0 1.7 0.00 0.36 0.36 96 1011.7
20260510023725 51 74 0.0 0.0 0.00 0.37 0.37 96 1010.3
20260510022703 51 57 0.0 0.9 0.00 0.36 0.36 96 1011.7
20260510022225 52 74 0.0 0.9 0.00 0.37 0.37 96 1010.2
20260510021803 51 0 0.0 0.0 0.00 0.36 0.36 96 1011.3
20260510020903 51 38 0.0 1.7 0.00 0.36 0.36 96 1011.7
20260510020724 51 66 0.0 0.0 0.00 0.37 0.37 96 1010.1
20260510020003 52 52 0.0 1.7 0.00 0.36 0.36 96 1011.3
20260510015403 52 54 0.0 1.7 0.00 0.36 0.36 96 1011.3
20260510015224 52 49 0.0 1.7 0.00 0.37 0.37 96 1010.3
20260510014503 52 63 0.9 1.7 0.00 0.36 0.36 95 1011.3
20260510013723 52 74 0.9 0.9 0.00 0.37 0.37 95 1009.9
20260510013603 52 58 0.0 1.7 0.00 0.36 0.36 95 1011.3
20260510012703 52 60 0.0 1.7 0.00 0.36 0.36 95 1011.3
20260510012220 52 90 0.0 0.0 0.00 0.37 0.37 95 1010.0
20260510011803 52 36 0.9 1.7 0.00 0.36 0.36 95 1011.3
20260510010903 52 3 0.0 1.7 0.00 0.36 0.36 95 1011.3
20260510010718 52 0 0.0 0.0 0.00 0.37 0.37 95 1009.9
20260510010003 52 6 0.0 0.9 0.00 0.36 0.36 95 1011.3
20260510005403 52 63 0.0 1.7 0.00 0.36 0.36 95 1011.0
20260510005214 52 81 0.0 0.0 0.00 0.37 0.37 95 1009.4
20260510004718 52 39 0.0 1.7 0.00 0.36 0.36 95 1011.0
20260510003713 52 60 0.9 1.7 0.00 0.37 0.37 95 1009.5
20260510003603 52 38 0.0 1.7 0.00 0.36 0.36 95 1010.6
20260510002703 52 45 0.0 2.6 0.00 0.36 0.36 95 1011.0
20260510002211 52 29 0.0 2.6 0.00 0.37 0.37 95 1009.5
20260510001803 52 21 0.9 1.7 0.00 0.36 0.36 95 1010.6
20260510000903 52 26 0.0 1.7 0.00 0.36 0.36 95 1010.6
20260510000707 52 20 0.9 1.7 0.00 0.37 0.37 95 1009.2
20260510000003 52 74 0.9 2.6 0.00 0.36 0.36 95 1010.3
20260509235617 52 78 0.9 3.5 0.00 0.36 0.36 95 1010.3
20260509235204 52 57 0.9 1.7 0.00 0.37 0.37 95 1009.1
20260509234503 52 104 0.9 2.6 0.00 0.36 0.36 95 1010.6
20260509233817 52 58 0.0 2.6 0.01 0.36 0.36 95 1010.6
20260509233701 52 270 0.0 1.7 0.00 0.37 0.37 95 1009.3
20260509232703 52 152 0.9 3.5 0.01 0.36 0.36 95 1010.3
20260509232157 51 120 0.0 2.6 0.00 0.37 0.37 95 1009.0
20260509231803 51 78 0.0 1.7 0.02 0.36 0.36 95 1010.3
20260509230903 51 71 0.0 2.6 0.02 0.36 0.36 95 1010.6
20260509230654 51 75 0.9 1.7 0.00 0.37 0.37 95 1009.2
20260509230003 51 109 0.9 2.6 0.02 0.36 0.36 95 1010.6
20260509225403 51 58 0.9 3.5 0.03 0.36 0.36 95 1010.6
20260509225154 52 221 0.0 1.7 0.05 0.37 0.37 95 1009.3
20260509224503 51 133 0.9 4.3 0.04 0.36 0.36 95 1010.6
20260509223650 52 99 0.0 0.9 0.02 0.35 0.35 95 1009.6
20260509223603 52 95 0.0 2.6 0.03 0.35 0.35 95 1011.0
20260509222703 52 98 0.9 2.6 0.05 0.35 0.35 94 1011.0
20260509222145 52 175 0.0 2.6 0.00 0.34 0.34 95 1009.7
20260509221803 52 125 0.9 3.5 0.07 0.34 0.34 94 1011.3
20260509220903 52 108 0.0 1.7 0.11 0.34 0.34 94 1011.0
20260509220645 52 209 0.0 1.7 0.05 0.34 0.34 94 1009.7
20260509220004 52 126 0.0 1.7 0.12 0.34 0.34 94 1011.3
20260509215403 52 126 0.0 1.7 0.12 0.33 0.33 94 1011.3
20260509215140 52 23 0.9 2.6 0.02 0.33 0.33 94 1009.9
20260509214503 52 126 0.0 1.7 0.12 0.32 0.32 94 1011.3